Temperature
21 20 20 19 19 19 21 22 23 23 22 22 22 21 20 20 20 19 19 19 19 19 19 19 18 18 18 18 18 18 18 18 18 18 18 18 18 18 18 18 19 19 18 18 19 18 18 18 18
21 20 19 19 19 20 21 23 23 22 22 22 22 21 20 19 19 19 19 19 19 19 19 19 18 18 18 18 18 19 18 18 18 18 18 18 18 18 18 18 18 18 18 18 18 18 18 18 18
21 20 20 19 20 21 22 23 23 23 23 23 22 21 20 19 19 19 19 19 19 19 19 19 18 18 18 18 18 19 19 18 18 18 18 18 18 18 18 18 18 18 18 18 18 18 18 18 18
21 20 20 20 22 22 23 23 23 23 23 23 22 20 20 20 20 20 19 19 19 19 19 18 18 18 18 18 18 19 19 19 18 18 18 18 18 18 18 18 18 18 18 18 18 18 18 18 18
21 21 20 21 23 23 23 24 24 23 22 22 21 20 19 19 20 20 20 19 19 19 19 18 18 18 18 18 18 19 19 18 19 18 18 18 18 18 18 18 18 18 18 18 18 18 18 18 18
21 20 21 22 23 24 24 24 23 22 22 22 21 19 19 19 20 20 19 19 19 19 19 18 18 19 18 18 18 18 19 18 18 18 18 18 18 18 18 18 18 18 18 18 18 18 18 18 18
21 20 22 23 23 24 25 24 23 22 22 22 21 19 19 19 19 19 19 19 19 19 19 19 18 18 18 18 18 18 18 19 18 18 18 18 18 18 18 18 18 18 18 18 18 18 18 18 18
23 21 23 23 23 24 25 24 24 23 22 22 22 20 19 19 19 19 19 19 19 19 19 19 19 19 19 18 19 18 18 18 18 18 18 18 18 18 18 18 18 18 18 18 18 18 18 18 18
23 21 22 23 24 24 24 24 24 24 23 22 22 22 21 20 19 19 19 19 19 19 19 19 19 19 19 19 19 18 18 18 18 18 18 18 18 18 18 18 18 18 18 18 18 18 18 18 18
23 21 23 24 24 25 25 24 24 23 22 22 21 21 21 20 20 19 19 19 19 19 19 19 19 19 19 19 19 19 18 18 18 18 18 18 18 18 18 18 18 18 18 18 18 18 18 18 18
23 23 24 25 26 26 25 25 24 23 21 22 21 21 20 20 20 20 20 20 19 19 19 19 19 19 19 19 19 19 18 18 18 18 18 18 18 18 18 18 18 18 18 18 18 18 18 18 18
24 24 25 26 27 26 25 25 24 23 23 24 23 22 21 20 20 20 20 20 19 19 19 19 19 19 19 19 19 19 19 18 18 18 18 18 18 18 18 18 18 18 18 18 18 18 18 18 18
25 25 27 27 27 26 26 24 24 23 24 23 22 21 21 21 20 20 20 20 20 20 19 19 19 19 19 19 19 19 19 19 18 18 18 18 18 18 18 18 18 18 18 18 18 18 18 18 18
26 26 26 27 27 26 25 24 24 23 23 22 22 21 21 21 21 20 20 20 20 20 20 19 19 19 19 19 19 19 19 19 18 18 18 18 18 18 18 18 18 18 18 18 18 18 18 18 18
27 26 26 26 26 26 25 24 23 23 23 22 21 21 21 21 21 21 21 21 21 20 20 20 19 19 19 19 19 19 19 19 18 18 18 18 18 18 18 18 18 18 18 18 18 18 18 18 18
26 25 25 26 26 26 25 24 23 23 22 21 21 21 21 21 21 21 21 21 21 20 20 20 19 19 19 19 19 19 19 19 18 18 18 18 18 18 18 18 18 18 18 18 18 18 18 18 18
24 24 25 26 26 25 24 24 23 23 22 21 21 21 21 21 21 21 21 21 21 21 20 20 20 20 19 19 19 19 19 19 18 18 18 18 18 18 18 18 18 18 18 18 18 18 18 18 18
25 25 25 25 25 24 23 23 22 22 22 21 21 21 21 21 21 21 21 21 21 21 20 20 20 20 20 19 19 19 19 19 18 18 18 18 18 18 18 18 18 18 18 18 18 18 18 18 18
25 25 24 24 25 24 23 23 22 22 22 21 21 21 21 21 22 22 21 21 21 21 20 20 20 20 20 19 19 19 19 19 19 18 18 18 18 18 18 18 18 18 18 18 18 18 18 18 17
25 24 24 24 25 24 23 23 23 22 22 22 21 21 21 21 22 22 22 21 21 21 21 20 20 20 20 20 20 19 19 19 19 19 18 18 18 18 18 18 18 18 18 18 18 18 18 18 17
24 24 24 24 24 24 24 23 22 22 22 22 22 22 22 22 22 22 22 22 22 21 21 21 20 20 20 20 19 19 19 19 19 19 19 19 18 18 18 18 18 18 18 18 18 18 18 18 18
24 24 24 24 23 22 23 22 22 21 21 21 22 22 22 22 22 22 22 22 22 22 21 21 21 21 20 20 20 19 19 19 19 19 19 19 18 18 18 18 18 18 18 18 18 18 18 18 18
24 25 24 24 23 22 22 22 21 21 21 21 21 22 22 22 22 23 23 23 22 22 22 21 21 21 20 20 20 20 20 20 19 19 19 19 19 18 18 18 18 18 18 18 18 18 18 18 18
25 23 22 19 20 21 21 21 21 20 21 21 21 22 22 22 22 23 23 23 22 22 22 22 21 21 20 20 20 20 20 20 19 19 19 19 19 19 18 18 18 18 18 18 18 18 18 18 18
23 22 21 22 20 20 21 21 20 21 21 21 22 22 22 22 22 22 22 22 22 22 22 22 21 21 21 20 20 20 20 20 20 19 19 19 19 19 19 18 18 18 18 18 18 18 18 18 18
22 22 21 22 21 20 20 20 21 21 21 22 22 22 22 23 23 23 23 23 23 22 22 22 21 21 21 20 20 20 20 20 20 19 19 19 19 19 19 19 19 18 18 18 18 18 18 18 18
22 21 21 19 20 20 20 20 20 21 21 21 21 22 22 22 22 22 23 23 23 22 22 22 22 21 21 21 20 20 20 20 20 19 19 19 19 19 19 19 18 18 18 18 18 18 18 18 18
22 19 18 18 19 20 21 21 20 21 21 20 20 20 21 22 22 22 22 22 22 22 22 22 22 21 21 21 20 20 20 20 20 19 19 19 19 19 19 19 18 18 18 18 18 18 18 18 18
21 20 18 16 18 19 20 20 21 20 20 20 19 20 21 22 22 22 22 22 22 22 22 22 21 21 21 21 20 20 20 20 19 19 19 19 19 19 19 18 18 18 18 18 18 18 18 17 17
21 20 18 20 19 17 18 20 21 20 19 19 19 20 21 21 22 22 22 22 22 22 22 21 21 21 21 21 20 20 20 20 19 19 19 19 19 19 18 18 18 18 18 18 18 18 18 17 17
Wind_Speed
12 9 4 1 3 4 3 3 0 2 3 3 5 6 6 4 2 1 1 2 3 3 4 8 9 10 11 11 13 15 16 18 19 20 21 22 21 21 21 20 20 20 20 19 18 18 18 17 17
8 6 2 1 4 3 4 3 2 1 4 4 5 5 5 4 3 3 1 1 4 5 5 7 10 11 11 11 13 15 16 17 18 19 20 21 21 21 21 20 19 19 19 19 18 18 18 17 17
8 4 1 3 3 3 2 1 3 4 3 2 4 5 4 3 3 2 2 4 5 5 5 8 10 10 11 11 12 14 15 17 18 18 19 20 20 20 20 19 19 19 18 18 17 17 17 16 16
4 1 2 3 1 3 4 3 5 5 3 4 4 5 4 3 3 4 6 6 5 5 5 7 10 10 10 11 12 13 15 16 16 17 18 19 19 19 19 19 19 18 18 17 17 16 16 15 14
1 2 4 3 3 2 2 5 4 3 2 3 4 5 3 3 7 8 7 6 6 4 3 5 8 9 9 11 12 13 14 14 15 16 17 17 17 17 17 18 18 18 17 16 15 15 14 14 13
2 3 4 2 4 2 2 4 4 4 4 4 5 5 2 3 6 6 6 6 5 4 3 3 7 8 9 10 11 12 13 14 14 15 16 16 16 16 16 16 17 17 16 15 14 14 13 13 12
2 3 1 1 2 1 2 4 4 4 4 3 4 5 2 3 5 6 6 5 5 4 3 2 4 6 8 9 10 11 12 13 14 14 15 15 15 16 16 15 16 16 15 14 13 13 12 11 10
3 3 1 1 2 2 4 4 4 5 4 5 4 6 5 5 7 7 6 5 4 3 2 2 3 4 5 6 9 10 11 12 13 13 13 14 14 14 15 14 14 14 14 13 12 12 11 10 9
3 3 1 4 4 3 5 4 3 4 6 3 3 4 6 12 11 8 5 4 2 2 1 1 2 3 4 4 7 8 9 10 11 11 12 11 9 9 10 12 12 12 13 12 11 11 10 8 7
3 2 6 5 5 5 6 6 6 5 4 2 5 7 12 13 11 9 7 6 4 3 2 1 1 2 3 4 4 5 6 7 7 7 8 8 8 7 8 9 10 11 11 10 10 9 8 6 5
5 5 4 3 4 5 6 6 5 8 4 6 10 13 14 13 10 9 8 7 6 4 3 3 2 2 3 2 3 3 4 5 6 7 7 7 6 5 5 4 5 6 7 6 6 5 5 4 3
4 5 4 3 3 5 7 6 5 6 6 7 13 16 14 14 12 11 10 8 5 5 4 3 3 3 3 3 3 3 4 4 4 5 6 6 4 4 3 3 3 4 4 4 3 3 3 3 2
3 3 3 3 3 5 7 5 5 3 4 11 13 13 13 13 11 9 8 7 6 6 5 4 4 4 4 3 2 3 4 4 4 5 5 6 4 4 4 3 3 3 4 3 2 2 2 1 1
3 1 2 1 3 4 6 3 3 3 10 13 13 13 12 12 11 9 8 7 7 7 6 5 5 5 5 4 3 3 4 4 5 4 5 6 5 4 4 4 3 3 3 4 3 2 1 0 1
1 2 4 2 3 3 7 2 2 6 12 13 12 11 11 10 10 10 10 9 8 7 6 6 6 5 5 5 4 4 4 5 4 5 6 7 6 6 5 4 3 3 4 4 3 2 1 1 1
3 4 3 3 1 3 6 4 3 8 12 11 11 11 10 9 9 9 8 7 7 7 6 6 6 6 6 5 4 3 4 5 4 5 6 7 7 7 5 4 3 4 4 3 3 2 1 1 1
5 2 2 4 0 2 3 4 3 8 11 11 10 10 9 8 8 8 8 8 7 7 7 7 6 7 6 5 4 4 4 4 4 5 6 7 7 8 6 4 4 4 4 3 3 3 2 2 1
3 1 2 4 2 2 2 4 3 8 10 10 9 8 8 10 11 9 9 8 7 7 7 7 6 6 6 5 4 3 3 3 4 5 6 7 7 8 7 5 5 5 4 3 3 3 2 2 1
3 3 4 6 3 3 4 4 5 8 8 8 9 9 10 10 8 7 8 8 8 7 7 7 7 6 6 4 4 4 3 3 3 4 6 8 8 8 7 4 4 5 4 4 4 3 2 1 1
4 2 4 4 0 3 2 3 3 7 11 10 10 10 11 9 7 8 8 9 9 9 8 8 8 7 7 6 4 3 3 3 3 3 4 7 8 9 8 6 5 5 4 4 4 4 2 2 2
3 5 6 4 2 2 2 4 2 3 4 5 7 7 8 10 10 9 10 10 10 10 10 10 9 8 7 6 4 3 3 2 2 2 3 4 7 8 7 7 6 5 5 5 5 5 5 3 2
5 7 6 3 2 2 2 2 6 4 3 5 7 8 9 9 9 9 10 11 11 12 10 9 9 8 7 7 6 6 5 4 4 3 3 3 5 6 7 6 6 6 5 5 5 5 4 4 3
7 1 3 2 4 1 1 2 7 2 4 8 10 10 9 9 10 10 11 11 11 11 10 9 8 8 7 7 8 7 5 4 3 3 4 3 3 4 6 6 6 6 5 6 5 5 5 4 4
4 6 7 6 5 0 4 4 6 4 6 6 7 9 9 9 9 9 8 7 7 8 8 9 8 7 7 7 7 8 7 6 5 4 4 3 3 3 5 6 6 6 5 6 6 6 6 5 5
5 6 4 4 3 5 2 3 7 7 6 6 7 8 7 9 9 9 9 9 8 9 9 8 9 8 7 8 8 8 7 7 7 6 5 5 4 4 5 5 5 5 6 6 5 6 6 6 6
4 9 8 6 5 5 1 5 7 6 5 4 4 4 5 8 9 10 10 10 9 9 8 8 9 8 8 9 8 7 6 6 5 6 5 6 5 5 5 5 5 6 6 6 5 5 5 5 6
6 4 6 7 3 1 5 6 7 3 3 1 0 2 4 5 6 8 8 9 9 9 9 9 8 8 8 8 7 6 7 7 6 6 6 5 5 5 5 6 6 5 6 6 6 5 5 5 6
5 8 6 6 6 4 5 5 5 6 5 3 2 2 2 3 4 6 7 8 8 8 8 8 8 9 8 7 7 7 6 6 6 6 6 5 5 4 4 5 5 5 5 5 5 5 5 5 5
3 4 5 5 5 7 5 7 6 8 7 5 5 3 3 3 4 4 5 6 6 6 7 7 7 7 7 7 6 6 6 6 6 6 6 5 4 5 5 5 5 5 6 5 6 6 6 6 6
4 5 6 5 4 5 5 8 4 4 5 4 4 2 1 1 2 3 3 4 5 6 7 7 8 8 8 8 7 7 6 6 6 6 6 5 5 5 5 5 5 6 6 6 6 7 6 7 7
Wind_Direction
147 142 142 148 57 44 344 318 316 33 32 24 64 84 98 87 101 138 334 76 86 94 112 125 124 120 116 114 116 122 126 129 132 135 137 137 137 137 137 135 134 132 130 130 127 125 127 125 124
145 152 175 76 72 40 318 320 34 66 137 128 73 72 73 62 58 91 60 86 96 98 103 116 116 116 114 114 116 122 127 129 132 135 137 138 138 138 137 135 135 133 131 130 128 127 127 124 124
157 187 107 74 90 170 237 263 118 111 128 90 71 59 72 81 99 115 129 111 89 88 98 113 116 113 112 115 120 123 127 130 132 135 137 139 138 139 139 138 137 135 132 130 128 127 127 125 124
159 130 56 58 358 228 197 187 144 128 69 55 88 68 63 61 121 126 120 111 99 88 97 115 117 119 117 116 120 124 127 130 133 135 137 138 138 138 138 139 138 134 133 131 130 129 128 128 128
124 82 50 19 317 298 177 161 145 116 81 71 89 87 53 33 97 112 116 112 106 91 94 117 115 116 118 118 122 125 129 131 133 135 137 139 139 140 141 140 138 136 136 136 133 130 130 130 130
79 70 61 348 325 346 115 133 120 97 98 98 99 100 63 96 112 121 114 109 105 100 90 105 118 117 118 122 124 123 127 129 134 137 139 142 142 143 143 143 140 137 137 136 134 132 133 131 130
111 92 131 240 295 307 160 126 127 124 120 131 121 104 105 136 122 114 104 97 91 85 76 73 103 117 123 127 129 128 130 131 135 136 141 144 145 146 146 144 143 143 142 141 137 135 134 132 130
148 104 35 250 203 228 159 126 129 130 123 126 120 136 170 170 129 107 91 82 85 83 69 48 70 100 115 126 132 133 133 135 138 140 141 146 146 146 147 147 148 148 148 146 142 139 140 136 131
128 75 246 230 200 206 156 134 138 102 121 136 128 151 152 137 130 118 106 96 103 124 75 68 61 88 107 125 138 136 136 137 138 140 141 136 131 137 143 147 152 153 152 150 147 145 144 135 131
118 159 233 218 192 174 164 149 148 122 132 118 95 105 125 137 144 147 153 160 173 187 188 143 127 120 122 136 122 119 125 123 120 119 120 117 120 131 138 150 156 158 156 153 150 147 141 125 119
170 209 250 254 195 155 154 148 141 138 188 194 163 148 146 150 158 165 171 175 186 190 188 175 167 142 127 117 117 113 117 114 115 120 120 119 117 123 125 132 149 148 144 137 138 130 119 119 122
188 250 241 258 177 150 152 143 137 170 215 173 158 152 155 162 172 178 180 182 179 177 189 181 166 145 137 129 121 116 122 124 128 133 132 130 128 129 131 131 135 123 122 119 120 115 115 120 135
209 270 262 224 165 154 131 138 144 189 129 130 141 151 164 172 179 185 183 178 174 183 190 184 173 161 145 133 141 130 130 137 140 139 145 147 143 142 144 138 131 129 133 133 138 131 126 125 162
242 273 311 6 118 137 127 121 112 165 134 140 154 167 175 180 182 181 179 180 184 189 191 181 175 168 150 153 156 144 151 152 149 159 165 162 160 150 142 142 143 152 158 158 158 158 153 171 203
359 24 8 32 94 124 112 77 202 160 144 155 169 178 182 187 185 189 190 187 187 188 184 177 176 163 161 167 171 162 164 162 164 176 179 176 173 166 155 149 160 175 169 163 154 143 139 182 214
31 48 11 309 73 114 127 231 215 155 156 169 178 184 187 192 194 195 190 187 183 177 176 183 184 169 171 169 164 162 166 167 176 180 183 186 183 177 166 164 179 182 168 161 156 155 146 170 199
30 47 291 303 304 117 154 236 197 163 171 180 184 187 187 192 199 197 191 187 181 179 177 180 179 170 173 168 159 159 160 171 182 181 185 191 189 184 177 178 185 174 165 169 179 166 165 180 202
236 240 267 271 256 129 201 247 181 173 180 187 186 187 189 198 206 196 190 186 179 176 175 178 177 172 165 156 144 144 153 173 178 184 191 190 190 187 182 182 183 172 165 175 177 174 170 178 187
179 202 256 263 231 166 216 245 204 183 187 195 196 193 198 207 205 188 186 181 174 173 173 181 182 177 165 158 161 166 184 184 180 191 194 194 194 189 182 180 175 173 178 187 180 170 171 186 150
167 220 267 293 298 164 207 262 222 189 201 203 202 202 203 203 196 191 186 183 182 182 183 187 191 182 180 178 168 163 159 172 181 184 184 193 192 189 189 183 185 180 178 181 182 171 168 187 168
210 201 225 235 2 46 86 334 280 233 213 213 211 206 206 202 200 198 193 192 187 188 190 195 194 186 180 166 144 129 112 107 145 175 189 193 191 192 191 187 186 185 184 192 195 183 176 188 200
249 226 204 192 117 291 105 263 287 248 230 222 221 210 208 204 197 197 196 196 195 196 193 191 189 185 177 166 166 168 177 190 196 185 190 188 188 189 190 187 187 188 191 196 202 193 185 177 198
218 188 153 150 149 65 19 163 286 320 250 242 228 218 208 200 197 198 201 202 200 193 190 189 184 185 179 175 176 178 189 193 172 160 176 190 188 189 190 189 188 192 197 201 205 195 193 191 193
162 75 59 52 80 191 241 175 271 245 232 245 230 222 211 198 195 196 197 192 193 188 186 185 181 188 184 183 185 186 188 181 171 177 185 195 194 195 195 194 194 196 199 204 208 201 199 204 205
99 95 35 359 15 246 252 181 244 253 241 232 229 218 206 194 189 189 189 188 189 188 187 184 182 190 188 192 198 197 193 186 190 192 196 196 200 207 210 201 196 199 204 205 199 200 209 207 207
173 146 162 196 215 263 274 222 250 265 270 248 229 205 188 188 187 191 194 192 191 189 186 183 187 190 190 197 202 198 194 195 203 201 198 202 208 214 209 201 204 205 203 204 197 204 214 211 213
140 168 166 143 156 214 269 276 296 291 307 323 263 160 183 186 185 191 192 193 191 190 189 185 186 191 193 198 198 198 201 201 205 204 203 207 209 210 202 201 207 212 208 204 196 207 216 211 218
137 143 104 128 156 219 267 258 244 253 257 259 245 212 206 175 176 188 190 191 191 190 188 182 188 194 193 191 197 202 203 206 207 200 206 207 205 204 195 202 208 213 212 207 201 208 214 214 224
85 96 109 123 155 167 222 257 227 219 226 223 233 237 223 193 187 186 187 186 181 177 182 185 193 198 194 191 194 195 197 199 200 205 211 207 196 188 194 202 208 214 216 212 209 217 216 221 230
148 151 146 157 207 179 185 254 273 207 210 201 212 225 230 194 189 176 168 166 173 181 190 193 196 199 200 193 191 193 192 193 200 210 210 202 198 195 197 202 204 215 217 210 210 220 221 223 230
Height
1478 1478 1480 1482 1485 1492 1493 1485 1478 1478 1478 1478 1477 1478 1481 1484 1487 1492 1487 1484 1484 1483 1482 1483 1483 1484 1485 1485 1486 1486 1488 1490 1493 1496 1499 1503 1506 1509 1512 1515 1518 1521 1524 1526 1529 1530 1533 1535 1538
1479 1480 1482 1483 1490 1502 1496 1482 1480 1479 1479 1479 1479 1480 1482 1484 1485 1486 1486 1486 1486 1485 1484 1485 1486 1486 1487 1488 1488 1489 1491 1493 1496 1499 1502 1505 1508 1511 1514 1517 1520 1523 1526 1528 1531 1533 1535 1537 1540
1480 1481 1483 1484 1492 1499 1492 1481 1479 1479 1479 1479 1481 1482 1484 1486 1487 1487 1487 1488 1488 1488 1488 1488 1489 1489 1490 1490 1491 1492 1494 1496 1498 1501 1504 1507 1510 1513 1516 1519 1522 1525 1528 1530 1533 1535 1537 1540 1542
1481 1483 1484 1488 1491 1486 1482 1479 1478 1479 1480 1481 1482 1485 1487 1489 1489 1489 1489 1489 1490 1490 1490 1491 1491 1492 1493 1493 1494 1495 1497 1499 1501 1504 1506 1510 1513 1516 1519 1521 1524 1527 1530 1532 1535 1537 1539 1542 1544
1482 1483 1488 1494 1489 1482 1478 1478 1479 1480 1481 1482 1483 1487 1489 1491 1491 1491 1491 1491 1492 1492 1493 1493 1494 1495 1495 1495 1496 1498 1499 1502 1504 1506 1509 1512 1515 1518 1521 1524 1527 1529 1531 1534 1537 1539 1541 1544 1546
1483 1484 1495 1498 1489 1481 1478 1478 1480 1481 1483 1484 1485 1488 1491 1492 1493 1493 1493 1493 1494 1494 1495 1496 1497 1497 1498 1498 1499 1500 1502 1504 1506 1508 1510 1513 1516 1519 1523 1526 1529 1531 1533 1536 1538 1541 1543 1545 1548
1484 1487 1493 1492 1490 1484 1480 1479 1481 1482 1484 1485 1486 1488 1491 1493 1494 1495 1496 1496 1496 1497 1498 1498 1499 1500 1500 1501 1502 1504 1505 1507 1509 1511 1513 1516 1519 1521 1524 1527 1530 1533 1535 1538 1540 1542 1545 1547 1549
1483 1487 1491 1491 1489 1485 1479 1480 1481 1483 1485 1487 1487 1488 1491 1493 1495 1496 1497 1498 1498 1499 1500 1500 1501 1502 1503 1504 1505 1506 1508 1510 1511 1513 1515 1518 1521 1524 1526 1529 1532 1534 1537 1539 1542 1544 1546 1548 1551
1483 1490 1494 1488 1485 1481 1478 1480 1483 1484 1485 1487 1487 1488 1490 1493 1495 1497 1498 1499 1500 1501 1501 1502 1503 1504 1505 1506 1508 1509 1510 1512 1514 1516 1518 1520 1523 1525 1528 1531 1533 1536 1538 1541 1543 1545 1548 1550 1552
1483 1492 1485 1477 1475 1476 1477 1479 1482 1484 1486 1487 1488 1489 1491 1493 1495 1497 1498 1499 1501 1502 1503 1504 1505 1506 1507 1508 1509 1510 1512 1514 1516 1518 1520 1522 1524 1527 1530 1532 1535 1537 1539 1542 1544 1546 1548 1551 1553
1481 1483 1476 1472 1472 1473 1476 1479 1481 1483 1486 1485 1485 1488 1491 1493 1495 1497 1499 1500 1502 1503 1504 1505 1506 1507 1509 1510 1511 1511 1512 1515 1518 1520 1522 1524 1526 1529 1531 1533 1536 1538 1540 1543 1545 1547 1549 1551 1554
1479 1475 1473 1472 1471 1473 1475 1478 1481 1482 1483 1483 1485 1487 1490 1493 1495 1497 1499 1501 1503 1504 1506 1507 1508 1509 1510 1512 1513 1512 1513 1517 1520 1522 1524 1526 1528 1530 1532 1535 1537 1539 1541 1544 1546 1548 1550 1552 1554
1476 1474 1471 1471 1471 1472 1475 1477 1479 1482 1482 1485 1487 1490 1491 1493 1495 1498 1500 1502 1504 1505 1507 1508 1509 1511 1512 1513 1515 1516 1517 1520 1522 1524 1525 1527 1529 1531 1533 1535 1537 1540 1543 1545 1547 1549 1551 1553 1555
1474 1473 1472 1471 1471 1473 1476 1479 1480 1481 1483 1485 1488 1490 1492 1494 1496 1498 1500 1502 1504 1506 1508 1509 1511 1512 1514 1515 1517 1518 1520 1522 1524 1525 1527 1529 1531 1532 1534 1536 1539 1542 1544 1546 1548 1550 1552 1553 1555
1473 1474 1474 1473 1472 1474 1477 1482 1481 1481 1483 1486 1488 1491 1493 1495 1497 1498 1500 1502 1504 1506 1508 1510 1512 1513 1515 1517 1518 1520 1522 1523 1525 1526 1528 1530 1532 1534 1536 1537 1540 1542 1544 1546 1548 1550 1552 1553 1554
1475 1480 1485 1477 1474 1475 1481 1489 1480 1481 1483 1486 1488 1490 1493 1495 1497 1499 1501 1503 1505 1507 1509 1511 1512 1514 1516 1518 1520 1521 1523 1524 1526 1528 1529 1531 1533 1535 1537 1539 1541 1543 1545 1547 1549 1550 1552 1553 1554
1485 1491 1489 1482 1475 1476 1481 1486 1480 1481 1482 1484 1487 1489 1492 1494 1496 1498 1500 1503 1505 1507 1509 1511 1513 1514 1516 1518 1520 1522 1523 1525 1527 1528 1530 1532 1534 1536 1537 1539 1541 1543 1545 1547 1548 1550 1551 1552 1554
1492 1491 1490 1487 1478 1478 1482 1483 1480 1480 1482 1484 1486 1488 1490 1492 1494 1496 1499 1502 1504 1507 1509 1511 1513 1514 1516 1518 1520 1522 1523 1525 1526 1528 1530 1532 1534 1536 1538 1539 1541 1543 1545 1546 1548 1549 1551 1552 1553
1481 1486 1490 1484 1476 1480 1483 1482 1480 1480 1481 1483 1484 1486 1487 1489 1492 1495 1498 1500 1503 1505 1507 1509 1511 1513 1515 1517 1519 1520 1522 1524 1526 1528 1530 1532 1534 1536 1537 1539 1541 1542 1544 1545 1547 1548 1550 1551 1552
1481 1487 1488 1482 1476 1479 1483 1482 1478 1478 1478 1479 1481 1483 1484 1487 1490 1492 1495 1498 1500 1503 1505 1508 1510 1512 1514 1516 1518 1520 1522 1524 1526 1527 1529 1531 1533 1535 1537 1538 1540 1541 1543 1544 1546 1547 1548 1549 1550
1481 1485 1484 1484 1480 1479 1482 1487 1482 1478 1478 1479 1480 1481 1482 1484 1486 1489 1492 1494 1497 1500 1502 1505 1508 1510 1512 1514 1517 1519 1521 1522 1524 1526 1528 1530 1532 1533 1535 1537 1539 1540 1541 1543 1544 1545 1546 1547 1549
1483 1474 1476 1479 1488 1495 1489 1505 1487 1480 1479 1477 1477 1477 1478 1481 1483 1486 1488 1491 1493 1496 1500 1503 1506 1508 1510 1513 1515 1517 1518 1520 1522 1524 1527 1529 1530 1532 1533 1535 1537 1538 1540 1541 1543 1543 1545 1546 1547
1473 1468 1473 1478 1487 1496 1494 1503 1494 1482 1482 1476 1473 1473 1474 1476 1479 1482 1484 1487 1490 1494 1497 1501 1504 1506 1509 1511 1513 1515 1517 1519 1521 1523 1525 1527 1528 1530 1532 1533 1535 1536 1537 1539 1540 1541 1542 1543 1544
1465 1473 1480 1489 1497 1508 1498 1503 1500 1486 1477 1471 1469 1469 1471 1473 1476 1478 1481 1485 1488 1491 1494 1497 1500 1503 1506 1509 1511 1512 1514 1517 1519 1521 1523 1525 1526 1528 1530 1531 1533 1534 1535 1536 1537 1538 1539 1540 1541
1468 1486 1506 1508 1517 1513 1496 1499 1495 1473 1468 1466 1465 1465 1467 1469 1472 1475 1478 1481 1484 1488 1491 1494 1497 1500 1503 1506 1508 1510 1512 1515 1517 1519 1521 1522 1524 1525 1527 1529 1530 1532 1533 1534 1535 1535 1536 1537 1538
1471 1480 1504 1515 1518 1511 1499 1500 1483 1467 1464 1463 1462 1463 1464 1466 1468 1471 1474 1478 1481 1485 1488 1491 1494 1497 1500 1502 1505 1507 1510 1512 1515 1517 1519 1520 1521 1523 1525 1526 1528 1529 1530 1531 1532 1533 1533 1534 1535
1471 1479 1479 1498 1506 1510 1504 1493 1477 1464 1462 1461 1460 1461 1462 1464 1466 1469 1473 1476 1479 1482 1485 1488 1491 1494 1496 1499 1502 1504 1507 1509 1511 1514 1516 1517 1519 1521 1522 1524 1525 1526 1527 1528 1529 1529 1530 1531 1531
1462 1472 1487 1499 1513 1516 1503 1495 1487 1470 1465 1462 1461 1460 1461 1463 1465 1468 1471 1474 1477 1480 1483 1485 1489 1491 1493 1496 1498 1501 1503 1506 1508 1510 1512 1514 1516 1518 1519 1521 1522 1523 1524 1525 1525 1526 1526 1527 1528
1468 1475 1484 1496 1498 1510 1511 1497 1467 1465 1462 1462 1460 1460 1460 1462 1464 1467 1469 1472 1475 1478 1480 1482 1486 1488 1490 1492 1495 1497 1499 1502 1505 1507 1508 1510 1512 1513 1515 1517 1518 1519 1520 1521 1521 1522 1523 1523 1524
1461 1469 1479 1490 1497 1500 1502 1490 1459 1459 1458 1458 1459 1460 1461 1462 1464 1466 1468 1470 1473 1475 1478 1479 1482 1484 1487 1489 1491 1493 1496 1498 1501 1503 1504 1506 1508 1509 1511 1513 1513 1514 1515 1516 1517 1518 1519 1519 1519